SCP
0 0 0 0 0 0 0 0 0 0 0 0 0 0 0 0 0 0 0 0 0 0
0 0 0 0 0 0 0 0 0 0 0 0 0 0 0 0 0 0 0 0 0 0
0 0 0 0 0 0 0 0 0 0 0 0 0 0 0 0 0 0 0 0 0 0
0 0 0 0 0 0 0 0 0 0 0 0 0 0 0 0 0 0 0 0 0 0
0 0 0 0 0 0 0 0 0 0 0 0 0 0 0 0 0 0 0 0 0 0
0 0 0 0 0 0 0 0 0 0 0 0 0 0 0 0 0 0 0 0 0 0
0 0 0 0 0 0 0 0 0 0 0 0 0 0 0 0 0 0 0 0 0 0
0 0 0 0 0 0 0 0 0 0 0 0 0 0 0 0 0 0 0 0 0 0
0 0 0 0 0 0 0 0 0 0 0 0 0 0 0 0 0 0 0 0 0 0
0 0 0 0 0 0 0 0 0 0 0 0 0 0 0 0 0 0 0 0 0 0
0 0 0 0 0 0 0 0 0 0 0 0 0 0 0 0 0 0 0 0 0 0
0 0 0 0 0 0 0 0 0 0 0 0 0 0 0 0 0 0 0 0 0 0
0 0 0 0 0 0 0 0 0 0 0 0 0 0 0 0 0 0 0 0 0 0
0 0 0 0 0 0 0 0 0 0 0 0 0 0 0 0 0 0 0 0 0 0
Wind_Speed_500mb
34 41 46 45 43 44 44 44 48 52 46 40 37 40 38 34 33 32 34 29 30 22
31 40 39 40 41 38 41 48 46 53 44 36 34 39 39 38 36 33 31 33 33 21
32 35 35 37 45 36 39 48 56 48 42 39 36 38 41 39 37 34 32 33 33 27
28 36 37 33 42 40 39 45 49 46 42 39 39 36 42 42 41 34 28 27 27 25
29 35 40 34 38 35 35 43 48 40 44 41 42 33 41 49 42 36 31 29 28 27
40 41 39 36 39 37 36 45 49 41 43 42 36 36 37 45 44 41 37 33 36 33
34 39 36 38 36 41 35 42 44 49 46 39 34 34 37 40 41 41 35 30 29 37
29 33 34 34 36 36 34 38 39 43 40 36 35 40 44 41 42 52 49 38 33 32
21 24 29 34 33 30 32 33 36 39 36 32 37 40 43 48 48 46 46 44 34 33
15 22 25 30 27 28 27 28 33 39 32 26 27 28 32 38 42 43 49 45 34 28
16 19 25 31 29 29 27 26 29 32 32 25 25 26 30 30 33 37 39 45 48 38
26 11 20 31 26 28 25 28 26 25 29 29 27 22 21 25 30 32 29 37 42 40
23 21 19 27 21 24 26 24 28 30 24 25 25 26 27 26 28 29 29 33 35 29
14 21 22 22 22 24 28 29 29 27 30 25 22 20 23 26 23 30 30 29 29 22
Wind_Direction_500mb
31 30 27 19 20 15 11 9 1 4 4 2 12 20 21 19 13 11 8 2 346 326
32 29 22 17 16 12 8 4 6 4 5 18 18 19 22 19 16 13 9 16 22 29
25 17 15 16 15 9 9 9 15 6 12 19 19 19 18 17 20 18 26 34 40 44
24 17 15 14 11 10 16 13 5 8 7 11 20 24 23 19 18 23 28 35 34 32
28 15 19 18 8 5 14 12 8 12 7 15 21 24 24 20 20 25 29 32 29 34
20 15 15 15 17 17 16 12 17 20 18 17 25 25 28 27 31 34 32 33 43 48
16 15 10 8 13 12 17 19 22 21 20 23 28 34 35 33 35 33 29 36 34 45
10 8 10 4 9 7 16 20 23 21 26 38 46 43 47 52 43 42 46 48 58 55
15 7 9 3 3 10 14 19 23 26 30 49 52 56 53 47 42 42 42 43 50 54
6 350 354 356 2 13 15 17 17 23 25 37 38 49 40 28 27 33 39 36 33 35
353 10 6 360 10 10 8 15 10 16 22 25 31 34 40 28 21 23 26 27 25 21
352 355 351 8 1 8 9 16 6 7 21 22 24 23 23 20 12 14 18 23 19 23
355 3 336 356 356 359 4 5 6 4 6 13 21 25 24 25 26 18 23 12 13 20
354 340 339 337 352 343 342 329 350 348 349 351 352 3 8 13 16 15 11 8 12 17
Wind_Speed_850mb
34 41 46 45 43 44 44 44 48 52 46 40 37 40 38 34 33 32 34 29 30 22
31 40 39 40 41 38 41 48 46 53 44 36 34 39 39 38 36 33 31 33 33 21
32 35 35 37 45 36 39 48 56 48 42 39 36 38 41 39 37 34 32 33 33 27
28 36 37 33 42 40 39 45 49 46 42 39 39 36 42 42 41 34 28 27 27 25
29 35 40 34 38 35 35 43 48 40 44 41 42 33 41 49 42 36 31 29 28 27
40 41 39 36 39 37 36 45 49 41 43 42 36 36 37 45 44 41 37 33 36 33
34 39 36 38 36 41 35 42 44 49 46 39 34 34 37 40 41 41 35 30 29 37
29 33 34 34 36 36 34 38 39 43 40 36 35 40 44 41 42 52 49 38 33 32
21 24 29 34 33 30 32 33 36 39 36 32 37 40 43 48 48 46 46 44 34 33
15 22 25 30 27 28 27 28 33 39 32 26 27 28 32 38 42 43 49 45 34 28
16 19 25 31 29 29 27 26 29 32 32 25 25 26 30 30 33 37 39 45 48 38
26 11 20 31 26 28 25 28 26 25 29 29 27 22 21 25 30 32 29 37 42 40
23 21 19 27 21 24 26 24 28 30 24 25 25 26 27 26 28 29 29 33 35 29
14 21 22 22 22 24 28 29 29 27 30 25 22 20 23 26 23 30 30 29 29 22
Wind_Direction_850mb
31 30 27 19 20 15 11 9 1 4 4 2 12 20 21 19 13 11 8 2 346 326
32 29 22 17 16 12 8 4 6 4 5 18 18 19 22 19 16 13 9 16 22 29
25 17 15 16 15 9 9 9 15 6 12 19 19 19 18 17 20 18 26 34 40 44
24 17 15 14 11 10 16 13 5 8 7 11 20 24 23 19 18 23 28 35 34 32
28 15 19 18 8 5 14 12 8 12 7 15 21 24 24 20 20 25 29 32 29 34
20 15 15 15 17 17 16 12 17 20 18 17 25 25 28 27 31 34 32 33 43 48
16 15 10 8 13 12 17 19 22 21 20 23 28 34 35 33 35 33 29 36 34 45
10 8 10 4 9 7 16 20 23 21 26 38 46 43 47 52 43 42 46 48 58 55
15 7 9 3 3 10 14 19 23 26 30 49 52 56 53 47 42 42 42 43 50 54
6 350 354 356 2 13 15 17 17 23 25 37 38 49 40 28 27 33 39 36 33 35
353 10 6 360 10 10 8 15 10 16 22 25 31 34 40 28 21 23 26 27 25 21
352 355 351 8 1 8 9 16 6 7 21 22 24 23 23 20 12 14 18 23 19 23
355 3 336 356 356 359 4 5 6 4 6 13 21 25 24 25 26 18 23 12 13 20
354 340 339 337 352 343 342 329 350 348 349 351 352 3 8 13 16 15 11 8 12 17